Date,TemperatureHighF,TemperatureAvgF,TemperatureLowF,DewpointHighF,DewpointAvgF,DewpointLowF,HumidityHigh,HumidityAvg,HumidityLow,PressureMaxIn,PressureMinIn,WindSpeedMaxMPH,WindSpeedAvgMPH,GustSpeedMaxMPH,PrecipitationSumIn
2013-1-1,39.7,36.3,27.0,31.7,26.6,15.7,84,68,54,29.92,29.74,20,4,20,0.00
2013-1-2,34.6,27.6,22.9,18.1,15.1,12.0,69,59,47,30.08,29.90,17,3,17,0.00
2013-1-3,33.9,28.4,23.4,20.4,17.6,16.0,76,64,51,30.09,29.97,14,3,14,0.00
2013-1-4,37.3,33.3,27.5,24.1,22.8,20.2,75,65,57,29.99,29.85,21,5,21,0.00
2013-1-5,44.4,35.5,29.8,25.2,22.9,19.8,76,61,45,30.19,29.92,20,3,20,0.00
2013-1-6,47.6,38.8,31.9,34.1,29.5,24.4,94,71,50,30.12,29.86,15,2,15,0.00
2013-1-7,47.2,38.0,28.7,32.1,27.2,22.8,86,66,44,30.29,29.96,15,2,15,0.00
2013-1-8,49.7,36.0,23.4,35.0,29.1,21.4,95,77,52,30.31,30.23,15,1,15,0.00
2013-1-9,48.9,39.5,27.5,40.2,33.9,26.0,95,81,70,30.29,30.03,16,2,16,0.00
2013-1-10,49.8,42.2,34.8,35.3,28.1,25.6,74,58,40,30.44,30.14,17,3,17,0.00
2013-1-11,45.8,40.5,33.9,45.0,35.4,25.8,98,82,67,30.43,29.98,10,1,10,0.40
2013-1-12,49.4,45.8,42.4,46.7,44.6,41.9,99,96,89,30.06,29.97,5,1,5,0.00
2013-1-13,48.7,46.1,43.7,48.1,45.7,43.3,99,98,96,30.05,29.90,5,0,5,0.02
2013-1-14,57.0,49.8,39.2,54.5,44.4,29.6,100,84,49,30.19,29.79,12,2,12,0.09
2013-1-15,39.3,37.4,34.7,36.4,31.0,27.9,93,78,66,30.24,30.09,10,1,10,0.14
2013-1-16,36.2,33.8,32.2,34.7,32.8,31.0,98,96,90,30.10,29.69,12,2,12,0.74
2013-1-17,44.3,39.2,35.7,35.1,30.8,26.2,94,72,58,29.99,29.81,17,3,17,0.00
2013-1-18,35.7,29.2,25.3,26.7,13.9,5.7,72,54,34,30.37,29.89,22,4,22,0.00
2013-1-19,51.0,39.4,25.0,30.6,25.6,13.3,78,59,42,30.30,29.83,22,4,22,0.00
2013-1-20,54.4,42.4,29.7,32.9,24.5,13.2,81,52,25,29.95,29.60,32,6,32,0.00
2013-1-21,29.7,25.6,21.9,13.5,11.6,9.2,69,55,47,29.99,29.95,10,2,10,0.00
2013-1-24,20.5,18.0,15.6,2.0,0.9,-0.2,50,47,42,30.32,30.25,19,5,19,0.00
2013-1-25,23.3,16.8,11.2,16.1,6.3,-2.0,93,65,45,30.33,29.97,13,2,13,0.00
2013-1-26,28.5,19.7,12.0,13.1,9.7,7.3,92,67,43,30.30,29.96,21,3,21,0.00
2013-1-27,35.9,25.3,15.6,15.2,12.1,8.5,74,59,38,30.43,30.30,15,2,15,0.00
2013-1-28,34.5,30.2,21.3,33.5,26.0,14.2,96,85,64,30.40,29.91,10,2,10,0.13
2013-1-29,55.7,42.3,34.2,45.4,39.5,33.2,97,91,67,30.04,29.91,13,2,13,0.00
2013-1-30,67.8,53.2,41.0,61.0,50.9,40.5,100,93,77,29.97,29.23,25,2,25,0.03
2013-1-31,62.0,44.8,28.5,60.5,32.5,11.8,97,64,38,29.71,28.93,36,10,36,1.05
2013-2-1,32.2,27.2,22.5,20.5,13.0,3.8,86,56,31,30.14,29.70,15,6,29,0.00
2013-2-2,30.4,23.5,17.1,21.3,10.8,6.7,91,59,38,30.20,29.95,16,3,16,0.00
2013-2-3,32.2,26.0,22.6,22.9,20.8,18.0,94,81,62,29.95,29.70,11,1,11,0.00
2013-2-4,30.2,26.0,21.6,21.4,13.3,9.9,81,59,43,29.89,29.72,22,5,22,0.00
2013-2-5,31.5,29.1,26.1,28.7,26.1,20.9,94,89,79,29.86,29.78,7,1,7,0.00
2013-2-6,40.3,32.7,26.7,29.1,23.4,11.2,97,71,47,30.25,29.81,18,3,18,0.01
2013-2-7,32.9,28.5,20.8,24.3,15.1,8.7,72,57,45,30.39,30.20,9,1,9,0.00
2013-2-8,35.7,32.6,28.2,33.1,30.0,24.2,97,91,72,30.21,29.55,19,4,19,0.16
2013-2-9,34.1,27.8,19.7,29.0,18.1,8.7,98,69,40,30.26,29.66,23,6,23,0.00
2013-2-10,39.7,26.1,11.9,22.3,13.6,8.0,87,62,28,30.38,30.22,9,1,9,0.10
2013-2-11,43.7,36.1,29.1,43.4,34.1,22.1,99,93,74,30.23,29.55,8,0,8,0.37
2013-2-12,44.3,40.1,33.8,40.4,28.4,24.8,99,63,51,29.87,29.63,22,5,22,0.01
2013-2-13,45.2,35.0,23.8,32.7,27.0,21.3,96,74,52,29.86,29.58,10,1,10,0.03
2013-2-14,46.9,37.7,31.2,34.9,30.4,25.2,97,77,46,29.90,29.61,10,1,10,0.03
2013-2-15,56.3,42.4,30.2,37.2,32.3,28.4,95,70,43,29.91,29.80,17,2,17,0.00
2013-2-16,41.2,35.7,30.0,34.7,27.5,14.4,95,73,53,29.87,29.64,14,3,14,0.04
2013-2-17,31.8,26.5,17.9,14.4,7.2,1.8,58,44,32,29.93,29.58,30,8,30,0.00
2013-2-18,35.7,25.5,16.2,15.2,7.9,2.8,57,47,34,30.15,29.93,19,5,19,0.00
2013-2-19,48.7,36.2,21.4,43.6,29.7,15.0,96,78,52,30.10,29.58,26,3,26,0.26
2013-2-20,37.1,30.0,24.6,26.9,15.7,10.6,70,55,44,29.90,29.64,24,7,24,0.00
2013-2-21,35.6,28.1,23.4,17.4,14.5,10.9,69,57,44,30.18,29.89,31,6,31,0.00
2013-2-22,37.6,30.9,21.5,33.0,23.5,15.1,87,74,59,30.29,30.16,10,2,10,0.00
2013-2-23,44.4,39.5,36.0,43.9,38.7,32.8,99,97,87,30.17,29.70,13,2,13,0.37
2013-2-24,47.3,38.7,32.7,39.6,32.3,22.8,98,79,57,29.89,29.65,21,4,21,0.01
2013-2-25,44.7,37.5,29.5,30.4,27.4,22.6,83,67,53,30.14,29.89,12,2,12,0.00
2013-2-26,44.1,36.6,26.9,36.1,31.4,25.1,95,82,68,30.18,29.73,21,4,21,0.15
2013-2-27,49.1,42.5,37.3,47.2,39.9,36.1,98,91,74,29.76,29.39,18,4,18,0.98
2013-2-28,49.8,42.8,36.3,38.9,34.6,28.8,91,74,52,29.52,29.44,12,2,12,0.00
2013-3-1,45.6,39.0,34.2,31.7,29.7,26.5,88,70,52,29.69,29.51,18,4,18,0.00
2013-3-2,39.7,35.0,30.3,26.9,25.1,22.9,82,67,56,29.70,29.61,18,4,18,0.00
2013-3-3,39.2,32.3,28.4,23.3,20.4,18.3,74,62,50,29.69,29.58,20,5,20,0.00
2013-3-4,42.5,33.8,26.9,22.7,20.4,16.4,71,58,44,29.83,29.68,25,6,25,0.00
2013-3-5,50.2,38.5,30.4,30.0,25.9,21.6,80,61,42,29.92,29.83,18,2,18,0.00
2013-3-6,42.2,39.4,34.7,36.1,32.7,28.9,86,77,65,29.86,29.71,33,7,33,0.00
2013-3-7,40.4,36.8,32.8,36.1,31.1,27.5,96,80,66,29.98,29.81,19,5,19,0.07
2013-3-8,41.4,34.5,30.5,36.9,32.1,28.9,97,91,70,30.10,29.91,12,1,12,0.36
2013-3-9,58.9,43.1,30.8,29.0,23.1,13.7,77,50,18,30.22,30.08,11,2,11,0.03
2013-3-10,49.4,37.5,27.0,38.1,32.1,22.8,97,82,63,30.29,30.20,13,2,13,0.00
2013-3-11,56.5,45.7,33.8,48.4,41.8,32.0,95,87,62,30.23,29.98,12,2,12,0.00
2013-3-12,57.5,53.2,44.0,56.9,50.2,38.2,98,90,75,29.99,29.56,20,4,20,0.73
2013-3-13,50.7,42.8,37.2,38.3,31.4,24.5,90,66,37,29.80,29.70,22,4,22,0.00
2013-3-14,42.7,35.7,30.3,24.9,15.9,8.7,62,46,26,29.86,29.74,27,7,27,0.00
2013-3-16,38.6,35.1,33.3,32.2,28.1,21.9,94,77,53,29.82,29.69,9,1,9,0.06
2013-3-17,38.1,33.3,28.5,31.0,21.2,16.4,91,63,44,30.21,29.82,17,3,17,0.00
2013-3-18,35.5,31.2,26.5,33.1,21.8,10.1,97,70,48,30.30,29.89,17,4,17,0.02
2013-3-19,49.2,39.1,33.9,38.4,33.2,17.5,98,82,40,29.89,29.59,20,4,20,0.57
2013-3-20,46.9,38.4,30.8,23.5,20.1,17.0,66,48,31,29.79,29.67,24,5,24,0.00
2013-3-21,39.5,34.3,29.4,28.7,19.5,12.4,88,56,36,29.74,29.52,16,4,16,0.00
2013-3-22,42.3,33.9,26.5,24.0,19.1,13.6,72,55,39,29.80,29.64,23,6,23,0.00
2013-3-23,46.7,38.4,30.8,23.4,21.4,18.5,69,51,35,29.85,29.74,27,6,27,0.00
2013-3-24,48.2,39.4,31.4,29.1,22.9,19.1,66,52,38,29.86,29.60,14,2,14,0.00
2013-3-25,39.3,36.8,33.3,35.8,31.6,26.9,97,82,62,29.60,29.36,18,3,18,0.17
2013-3-26,52.1,42.0,32.7,34.7,31.2,26.4,95,69,40,29.78,29.50,23,2,23,0.01
2013-3-27,52.8,42.8,33.6,32.2,28.6,22.8,73,59,32,29.90,29.77,18,4,18,0.00
2013-3-28,51.1,43.3,34.2,32.6,30.9,29.0,82,62,46,30.02,29.87,20,4,20,0.00
2013-3-29,55.0,44.9,33.7,31.3,29.8,27.3,81,57,36,30.06,29.96,18,3,18,0.00
2013-3-30,59.1,46.9,33.6,33.5,27.1,19.9,85,51,24,30.08,29.96,15,2,15,0.00
2013-3-31,57.7,45.8,31.1,44.5,35.0,24.6,98,69,38,30.02,29.58,18,2,18,0.11
2013-4-1,62.7,48.5,37.3,46.9,38.0,13.3,98,71,33,29.82,29.53,28,5,28,0.02
2013-4-2,44.4,37.4,29.0,18.8,14.8,11.5,60,40,28,29.99,29.81,26,5,26,0.00
2013-4-3,46.5,37.6,29.7,17.8,15.0,10.7,52,40,26,30.09,29.98,22,5,22,0.00
2013-4-4,55.1,48.0,38.3,27.5,23.2,17.1,56,38,29,30.26,29.98,13,3,13,0.00
2013-4-5,64.3,49.4,40.0,34.1,26.8,17.1,75,46,19,29.98,29.60,21,4,21,0.00
2013-4-6,54.4,43.3,34.3,29.0,18.7,10.5,68,40,18,30.21,29.89,17,4,17,0.00
2013-4-7,65.2,50.0,37.3,45.5,35.5,26.9,79,60,31,30.21,29.88,20,4,20,0.00
2013-4-8,77.2,60.3,46.8,48.5,45.6,40.8,88,62,29,29.97,29.87,12,2,16,0.00
2013-4-9,83.8,67.9,49.3,55.8,46.4,36.9,94,53,20,29.87,29.77,24,3,24,0.00
2013-4-10,78.0,65.5,55.5,56.7,52.6,46.6,98,65,45,29.83,29.67,24,2,24,0.48
2013-4-11,60.4,55.4,46.8,59.7,52.0,42.6,100,89,70,29.92,29.64,18,3,18,0.01
2013-4-12,48.5,43.5,41.7,43.0,41.6,40.6,98,94,75,29.89,29.60,24,5,24,0.62
2013-4-13,59.1,48.7,37.7,44.0,38.9,35.1,99,72,43,29.88,29.64,16,2,16,0.02
2013-4-14,59.9,51.8,41.2,43.4,35.3,28.8,95,57,32,30.11,29.87,19,3,19,0.00
2013-4-15,55.7,49.2,43.4,43.2,34.8,28.3,88,58,44,30.27,30.10,16,3,16,0.00
2013-4-16,72.5,58.8,46.0,57.6,50.8,43.1,92,76,58,30.26,29.99,19,3,19,0.00
2013-4-17,73.9,62.4,49.6,57.5,45.3,32.8,93,59,24,30.18,29.98,14,2,14,0.00
2013-4-18,55.6,51.3,44.9,52.7,46.4,40.6,96,83,70,30.23,29.98,14,2,14,0.01
2013-4-19,78.8,66.5,53.4,66.2,61.3,52.6,100,84,63,29.98,29.52,21,4,21,0.17
2013-4-20,59.2,52.4,46.8,56.9,36.9,24.7,96,59,34,30.20,29.58,21,5,21,0.14
2013-4-21,56.2,45.0,34.7,31.6,25.5,20.8,70,47,29,30.51,30.20,16,2,16,0.00
2013-4-22,51.2,44.0,31.5,39.9,33.9,29.7,95,69,47,30.54,30.37,22,4,22,0.00
2013-4-23,51.9,45.1,40.5,43.4,38.3,33.2,91,77,65,30.37,30.01,13,3,13,0.00
2013-4-24,75.8,56.1,36.4,55.6,46.9,34.9,96,74,46,30.02,29.68,17,3,17,0.00
2013-4-25,66.7,56.2,46.4,55.1,34.3,24.6,84,47,22,30.15,29.74,24,4,24,0.00
2013-4-26,67.7,55.0,43.1,38.5,32.0,22.9,70,45,20,30.29,30.15,13,2,13,0.00
2013-4-27,71.3,56.5,37.0,36.2,32.7,28.1,80,43,22,30.33,30.16,13,2,13,0.00
2013-4-28,72.0,57.0,39.1,45.3,37.7,28.9,87,52,28,30.22,30.07,21,2,21,0.00
2013-4-29,56.3,53.3,50.9,51.6,49.2,43.8,95,86,63,30.13,30.06,12,2,12,0.17
2013-4-30,63.4,54.8,41.6,49.8,42.5,27.9,95,67,28,30.22,30.09,15,2,15,0.01
2013-5-1,65.4,52.0,35.6,46.8,40.0,30.0,95,67,28,30.37,30.22,18,2,18,0.00
2013-5-2,72.7,56.8,38.1,48.2,43.6,37.3,98,66,35,30.36,30.20,9,1,9,0.00
2013-5-3,63.9,54.7,44.6,47.6,42.9,37.8,93,66,47,30.34,30.24,16,2,16,0.00
2013-5-4,66.8,52.6,39.6,48.6,43.5,38.8,99,74,45,30.26,30.13,14,2,14,0.00
2013-5-5,58.9,49.8,39.4,46.3,42.5,37.8,97,77,56,30.19,30.12,16,2,16,0.00
2013-5-6,65.5,54.3,44.5,54.8,48.4,42.9,95,81,65,30.16,30.04,11,1,11,0.00
2013-5-7,70.3,57.9,44.1,61.0,53.6,43.3,99,86,70,30.06,29.96,13,2,13,0.00
2013-5-8,69.2,59.8,51.4,64.0,58.6,50.9,100,96,81,29.98,29.84,14,2,14,1.41
2013-5-9,70.3,59.3,50.6,61.4,55.8,50.1,100,89,63,29.89,29.78,11,1,11,0.40
2013-5-10,83.8,68.5,55.4,62.2,58.5,54.1,98,73,38,29.89,29.76,10,2,10,0.00
2013-5-11,74.8,65.2,61.6,66.8,63.2,58.6,99,94,70,29.79,29.57,16,2,16,0.70
2013-5-12,68.1,60.4,50.3,61.5,44.0,28.1,98,59,28,29.83,29.55,26,4,26,0.01
2013-5-13,56.7,49.6,41.8,35.7,31.3,25.4,74,51,34,30.01,29.83,20,3,20,0.00
2013-5-14,62.4,50.5,37.7,35.3,30.7,22.0,83,51,22,30.03,29.90,15,2,15,0.00
2013-5-15,76.8,60.9,43.5,59.7,49.4,34.7,80,67,51,29.96,29.56,12,2,12,0.00
2013-5-16,82.7,69.2,56.7,63.3,57.8,44.7,97,70,41,29.72,29.59,13,1,13,0.00
2013-5-17,75.7,64.8,51.6,47.7,43.7,40.1,70,48,29,30.08,29.72,13,2,13,0.00
2013-5-18,63.7,58.0,50.9,57.1,52.3,46.3,89,82,67,30.20,30.08,7,1,7,0.00
2013-5-19,58.1,56.6,55.0,57.3,56.1,54.1,100,98,87,30.20,30.06,10,1,10,0.48
2013-5-20,80.8,67.9,57.1,69.6,63.7,57.1,100,88,67,30.08,29.84,11,1,11,0.00
2013-5-21,87.8,75.1,62.7,73.2,68.4,62.3,100,82,60,29.87,29.73,15,2,15,0.00
2013-5-22,83.2,72.3,61.2,73.2,67.8,59.8,99,86,71,29.82,29.70,9,1,9,0.00
2013-5-23,81.3,73.6,68.9,71.7,69.1,66.2,94,86,68,29.77,29.63,19,3,19,0.08
2013-5-24,68.8,55.3,45.3,66.8,53.6,42.1,99,94,81,29.87,29.57,18,3,18,0.54
2013-5-25,58.8,50.3,44.0,45.4,42.1,37.0,95,75,51,29.92,29.82,30,5,30,0.09
2013-5-26,69.3,57.3,47.3,41.6,38.5,33.1,76,52,30,30.10,29.89,23,4,23,0.00
2013-5-27,75.5,60.2,40.7,45.5,41.0,36.8,90,53,28,30.16,30.02,14,2,14,0.00
2013-5-28,65.9,58.4,49.7,58.6,53.3,45.0,99,84,56,30.12,30.01,6,0,6,0.38
2013-5-29,88.8,71.6,58.8,72.6,64.6,58.5,100,82,49,30.03,29.88,14,1,14,0.00
2013-5-30,94.0,82.0,71.0,70.9,67.3,63.7,90,64,38,30.02,29.94,12,2,12,0.00
2013-5-31,95.2,82.9,71.3,73.5,66.5,60.3,85,61,36,30.02,29.86,14,2,14,0.00
2013-6-1,92.8,81.0,67.6,72.1,68.5,64.6,96,68,43,29.91,29.76,16,2,16,0.00
2013-6-2,89.7,80.6,70.0,72.5,69.6,66.4,93,70,49,29.79,29.65,15,3,15,0.66
2013-6-3,82.2,72.3,63.9,71.4,68.3,57.8,99,88,63,29.76,29.67,8,1,8,0.81
2013-6-4,77.0,66.3,56.3,58.0,47.5,44.3,82,52,32,30.00,29.76,16,3,16,0.00
2013-6-5,73.3,62.7,47.9,55.7,48.5,41.8,95,62,41,30.10,29.99,16,2,16,0.00
2013-6-6,70.5,62.2,54.1,61.3,58.3,53.2,99,88,61,30.03,29.89,13,2,13,0.18
2013-6-7,63.5,61.1,59.7,63.5,60.9,59.7,100,99,98,29.89,29.49,15,2,15,3.22
2013-6-8,78.1,67.6,56.9,66.1,62.4,56.3,100,85,64,29.94,29.47,14,2,14,0.08
2013-6-9,83.5,71.7,58.7,63.5,60.8,57.8,98,71,46,30.07,29.94,10,1,10,0.00
2013-6-10,68.5,65.5,63.7,66.3,64.3,62.1,100,96,87,30.03,29.69,13,1,13,1.22
2013-6-11,80.8,73.6,66.3,70.4,67.9,63.9,100,84,63,29.69,29.51,19,3,19,0.04
2013-6-12,82.1,72.5,61.9,60.9,57.5,54.6,86,60,43,29.73,29.64,19,3,19,0.00
2013-6-13,66.5,62.4,56.8,63.5,60.3,55.4,98,93,84,29.73,29.33,18,2,18,1.05
2013-6-14,72.2,60.4,53.9,63.4,55.7,51.6,99,86,56,29.79,29.41,18,2,18,0.29
2013-6-15,82.2,69.7,55.6,61.7,57.1,53.9,98,68,40,29.92,29.78,14,2,14,0.01
2013-6-16,83.8,71.3,57.8,67.0,61.0,55.6,96,72,42,29.88,29.66,21,2,21,0.00
2013-6-17,87.3,75.1,64.5,69.6,66.2,63.1,98,76,50,29.81,29.71,11,2,11,0.00
2013-6-18,84.0,70.6,62.8,71.6,66.2,62.2,99,87,61,29.78,29.68,16,1,16,0.14
2013-6-19,80.0,68.3,57.8,62.3,55.0,47.4,98,67,35,30.05,29.76,11,2,11,0.00
2013-6-20,82.3,69.9,54.4,61.8,56.7,51.9,95,65,43,30.16,30.05,13,2,13,0.00
2013-6-21,84.7,72.4,58.8,60.4,55.9,50.3,80,58,42,30.20,30.10,10,2,10,0.00
2013-6-22,86.6,73.2,57.1,66.4,60.6,53.3,90,66,47,30.15,29.99,11,2,11,0.00
2013-6-23,90.2,76.4,64.9,74.3,68.1,61.1,98,77,53,30.08,29.92,14,2,14,0.06
2013-6-24,94.4,79.8,71.5,75.8,70.5,61.6,99,76,44,29.95,29.83,14,2,14,0.00
2013-6-25,92.6,78.7,67.3,78.3,70.1,65.3,98,77,49,29.88,29.69,23,2,23,0.33
2013-6-26,88.6,78.8,72.5,74.3,69.7,65.9,96,75,53,29.75,29.66,14,2,14,0.06
2013-6-27,89.0,78.3,70.7,75.8,72.6,70.1,99,84,57,29.72,29.42,13,2,13,0.44
2013-6-28,87.9,77.6,71.4,73.1,70.9,66.9,99,81,55,29.45,29.35,12,3,12,0.00
2013-6-29,88.3,77.7,66.9,73.5,68.3,64.8,98,75,48,29.57,29.37,12,2,12,0.00
2013-6-30,85.8,76.6,69.1,76.5,72.9,68.5,99,89,70,29.78,29.57,12,1,12,0.05
2013-7-1,77.8,74.9,71.9,76.0,73.3,70.8,99,95,90,29.92,29.77,17,1,17,2.02
2013-7-2,87.1,77.2,72.8,76.9,73.8,71.8,99,90,69,30.07,29.92,12,2,12,0.05
2013-7-3,88.3,77.7,71.4,78.5,73.8,70.2,97,88,69,30.14,30.04,9,1,9,0.17
2013-7-4,90.8,82.3,75.0,77.5,74.8,72.6,98,80,58,30.13,30.02,13,2,13,0.00
2013-7-5,93.8,83.6,73.8,76.8,74.1,72.0,97,75,54,30.10,29.96,13,2,13,0.00
2013-7-6,93.8,84.7,75.2,76.7,74.3,72.7,93,73,52,30.02,29.89,12,2,12,0.00
2013-7-7,92.5,81.3,75.4,75.7,73.5,69.6,92,78,54,29.94,29.81,16,2,16,0.00
2013-7-8,90.6,79.6,70.5,73.3,69.9,66.4,93,74,52,29.92,29.84,12,2,12,0.00
2013-7-9,89.7,79.3,69.8,74.4,70.9,67.4,95,77,53,29.96,29.87,8,2,12,0.04
2013-7-10,87.8,80.2,71.8,77.2,73.6,70.7,98,81,61,29.91,29.69,15,2,15,0.00
2013-7-11,88.5,80.0,73.5,74.9,71.2,65.0,89,75,58,29.80,29.68,9,2,9,0.00
2013-7-12,78.5,72.6,68.6,70.1,67.2,64.0,98,84,70,29.96,29.79,14,2,14,0.44
2013-7-13,82.8,73.7,68.3,78.4,72.7,68.0,100,97,85,30.16,29.96,10,0,10,0.13
2013-7-14,87.2,77.5,74.0,76.9,75.0,73.6,100,93,70,30.22,30.15,7,0,7,0.00
2013-7-15,95.0,92.0,87.5,77.7,76.0,74.5,68,60,54,30.10,30.05,8,1,8,0.00
2013-7-17,98.3,91.0,77.9,74.9,72.8,70.6,86,57,43,30.07,29.94,7,0,7,0.00
2013-7-18,98.8,88.4,77.8,78.4,74.6,70.6,84,66,42,29.96,29.83,12,0,12,0.00
2013-7-19,97.3,88.3,80.1,80.6,77.9,74.9,93,73,51,29.85,29.66,13,1,13,0.06
2013-7-20,93.4,82.7,74.9,78.5,74.3,71.5,98,77,53,29.71,29.60,18,2,18,0.31
2013-7-21,88.3,79.3,72.2,74.9,69.7,63.6,99,75,49,29.83,29.70,9,1,9,0.00
2013-7-22,87.8,77.7,71.3,75.9,73.2,67.5,99,87,63,29.83,29.67,8,1,11,0.23
2013-7-23,88.8,79.0,71.8,75.9,73.6,71.0,99,85,62,29.67,29.45,12,2,12,0.34
2013-7-24,82.0,75.9,67.0,71.6,66.2,56.2,91,73,55,29.81,29.51,13,3,13,0.00
2013-7-25,67.5,65.5,63.6,60.1,55.0,50.8,80,69,63,29.93,29.80,15,3,15,0.00
2013-7-26,85.6,76.2,66.7,66.4,62.7,60.3,91,65,47,29.93,29.87,9,2,9,0.00
2013-7-27,86.5,74.0,62.6,69.7,65.0,60.8,99,76,43,29.94,29.82,13,1,13,0.00
2013-7-28,83.3,72.1,64.5,73.3,68.4,63.6,99,89,66,29.86,29.77,13,1,13,0.55
2013-7-29,84.8,74.5,66.2,69.9,64.8,55.8,100,75,40,30.00,29.83,12,1,12,0.02
2013-7-30,82.0,70.9,58.4,61.4,59.1,56.1,93,68,47,30.07,29.99,12,1,12,0.00
2013-7-31,84.9,72.3,58.3,65.3,61.2,57.5,98,71,44,30.05,29.91,9,1,9,0.00
2013-8-1,71.8,69.1,66.8,69.6,66.8,64.4,99,93,82,29.92,29.72,11,1,11,0.95
2013-8-2,85.2,74.6,64.6,69.9,65.9,60.6,100,77,46,29.80,29.68,13,1,13,0.01
2013-8-3,79.2,71.3,66.8,69.2,65.7,61.3,92,83,70,29.81,29.73,13,2,14,0.03
2013-8-4,60.5,60.2,59.7,59.4,59.1,58.8,97,96,96,29.75,29.75,0,0,5,0.00
2013-8-5,79.3,70.8,58.0,59.4,53.1,47.1,83,56,37,29.95,29.87,14,2,14,0.00
2013-8-6,83.0,70.7,57.6,64.7,59.2,54.1,97,70,41,30.00,29.91,13,1,13,0.00
2013-8-7,81.0,72.1,65.3,69.0,66.7,63.0,94,84,65,30.02,29.94,9,2,11,0.01
2013-8-8,84.4,74.1,69.1,77.5,72.0,68.2,100,94,74,29.95,29.87,10,1,10,1.47
2013-8-9,86.4,78.0,72.4,77.8,74.7,71.8,99,90,73,29.89,29.68,15,2,15,0.06
2013-8-10,84.8,75.8,66.4,74.1,67.7,63.3,98,78,53,29.93,29.74,11,1,11,0.00
2013-8-11,84.2,72.2,59.2,66.2,60.6,54.3,96,70,44,30.01,29.90,7,1,7,0.00
2013-8-12,85.0,74.2,68.0,70.6,68.3,64.7,99,83,53,29.92,29.80,6,1,6,0.45
2013-8-13,81.5,71.9,67.6,70.9,68.9,65.7,100,91,68,29.81,29.58,14,1,14,0.78
2013-8-14,75.0,66.9,58.2,65.9,55.0,50.6,90,67,50,29.95,29.64,18,3,18,0.00
2013-8-15,79.0,66.5,52.6,57.2,53.2,48.6,92,66,38,30.04,29.95,11,1,11,0.00
2013-8-16,82.5,68.1,53.4,60.4,55.6,51.9,99,69,36,30.09,30.01,9,1,9,0.00
2013-8-17,84.0,69.4,55.5,63.2,57.9,54.6,98,71,38,30.17,30.09,10,1,10,0.00
2013-8-18,78.0,68.5,61.7,65.2,61.3,58.7,93,79,56,30.14,30.01,6,0,6,0.00
2013-8-19,77.2,69.3,62.1,68.0,63.7,60.1,98,83,61,30.02,29.93,9,1,9,0.00
2013-8-20,88.8,75.7,63.5,70.3,66.5,62.9,99,76,46,30.02,29.93,11,1,11,0.01
2013-8-21,90.0,77.2,64.0,68.4,65.5,61.1,98,71,40,30.07,29.93,10,1,10,0.00
2013-8-22,78.2,73.2,69.8,73.7,71.1,68.5,99,93,82,29.95,29.76,9,1,13,1.00
2013-8-23,82.2,73.6,64.8,71.7,63.6,53.6,99,74,40,29.98,29.76,14,1,14,0.00
2013-8-24,82.3,69.7,59.5,59.6,55.5,50.1,95,63,37,30.23,29.98,12,2,12,0.00
2013-8-25,83.3,68.7,54.2,61.4,57.2,53.9,99,71,40,30.29,30.12,10,1,10,0.00
2013-8-26,84.2,73.2,64.3,69.6,63.8,57.7,87,73,59,30.13,29.81,14,2,14,0.02
2013-8-27,89.0,77.7,69.8,71.7,69.6,68.4,96,78,53,29.81,29.72,16,2,16,0.07
2013-8-28,84.3,74.3,68.1,74.1,71.4,67.5,99,91,69,29.79,29.72,8,0,8,0.04
2013-8-29,80.5,72.9,68.9,71.7,69.0,65.7,100,88,71,29.91,29.76,7,1,7,0.00
2013-8-30,84.5,75.1,68.4,72.9,69.3,66.1,95,83,63,29.91,29.74,12,2,12,0.00
2013-8-31,88.2,79.4,70.2,76.2,72.9,68.7,96,81,66,29.75,29.66,10,2,10,0.00
2013-9-1,87.2,77.4,72.6,76.7,73.3,70.5,99,88,69,29.74,29.65,12,1,12,0.03
2013-9-2,81.5,75.4,71.5,76.2,73.2,70.6,100,93,72,29.68,29.59,6,0,6,0.19
2013-9-3,82.9,74.0,64.1,72.3,66.4,58.5,100,80,46,29.77,29.60,15,1,15,0.01
2013-9-4,81.6,70.1,59.6,62.3,59.7,56.3,96,72,48,29.90,29.77,10,2,15,0.00
2013-9-5,79.0,67.8,54.7,64.1,55.7,44.3,91,68,35,30.03,29.83,17,2,17,0.00
2013-9-6,73.0,58.8,47.5,49.6,42.4,-99.9,90,61,35,30.15,30.02,10,-27,10,0.00
2013-9-7,80.5,64.8,48.5,56.6,51.4,47.0,97,65,36,30.02,29.79,10,1,10,0.00
2013-9-8,82.1,71.0,61.3,67.6,58.2,47.8,87,65,44,29.97,29.72,16,3,16,0.00
2013-9-9,74.5,62.9,48.9,61.2,52.9,45.5,89,71,55,30.13,29.97,11,1,11,0.00
2013-9-10,87.8,76.3,66.8,75.4,69.7,61.2,91,81,65,30.06,29.93,13,2,13,0.00
2013-9-11,95.3,82.3,73.4,79.8,75.2,72.3,97,81,56,30.00,29.85,13,2,13,0.00
2013-9-12,84.3,84.3,84.3,74.7,74.7,74.7,73,73,73,29.74,29.74,3,3,3,0.00
2013-9-22,67.7,62.4,57.0,49.2,47.6,45.9,68,59,47,29.79,29.67,14,3,14,0.45
2013-9-23,66.2,58.0,47.1,47.0,44.6,41.9,83,62,48,29.94,29.85,15,3,15,0.00
2013-9-24,74.5,56.4,39.7,50.2,45.4,38.7,98,70,39,29.96,29.77,12,1,12,0.00
2013-9-25,74.7,57.9,43.0,53.3,48.0,41.9,97,73,42,29.86,29.76,10,1,10,0.00
2013-9-26,70.0,58.4,47.9,60.7,54.6,47.1,99,88,67,29.99,29.83,11,1,11,0.00
2013-9-27,70.3,60.1,49.3,57.0,53.7,48.5,98,81,56,30.16,29.99,8,1,8,0.00
2013-9-28,75.2,61.1,50.4,56.3,53.0,49.3,98,77,46,30.22,30.12,11,1,11,0.00
2013-9-29,72.7,58.4,47.2,59.3,53.4,46.7,100,85,60,30.12,29.97,7,1,8,0.00
2013-9-30,76.8,59.9,45.7,56.6,52.2,45.2,100,79,44,29.98,29.86,9,1,9,0.00
2013-10-1,81.3,66.1,51.9,62.5,57.1,50.5,96,75,49,29.91,29.79,11,1,11,0.00
2013-10-2,84.7,69.6,54.8,64.9,60.3,53.8,98,75,50,29.91,29.81,16,2,16,0.00
2013-10-3,80.0,67.7,54.6,61.1,58.6,54.0,99,76,43,30.02,29.91,7,0,7,0.00
2013-10-4,86.8,71.2,58.2,68.5,63.4,56.6,97,78,52,29.96,29.85,10,1,10,0.00
2013-10-5,79.7,69.5,63.7,68.1,65.3,62.8,98,87,66,29.99,29.90,8,1,8,0.00
2013-10-6,68.8,66.8,64.9,68.0,66.1,63.9,99,98,94,29.98,29.91,10,1,10,0.00
2013-10-7,80.1,66.7,56.7,72.5,64.8,51.9,100,94,69,29.91,29.64,24,2,24,0.44
2013-10-8,68.8,56.7,46.8,51.9,47.6,44.6,98,74,43,30.21,29.89,12,1,12,0.00
2013-10-9,61.6,54.2,49.1,50.9,46.8,41.8,83,76,67,30.27,30.16,9,1,9,0.00
2013-10-10,61.9,58.2,52.3,56.1,52.8,47.8,90,82,78,30.17,29.95,13,3,13,0.03
2013-10-11,67.3,63.5,56.8,61.6,58.9,54.9,94,85,72,29.97,29.89,18,3,18,0.05
2013-10-12,72.7,64.8,58.1,58.1,51.6,40.3,79,63,39,30.16,29.94,17,3,17,0.00
2013-10-13,67.0,59.5,53.5,55.9,52.8,49.3,86,79,64,30.27,30.15,14,2,14,0.00
2013-10-14,70.2,55.1,44.5,52.5,49.1,43.9,99,82,49,30.26,30.13,8,1,8,0.00
2013-10-15,71.0,55.7,45.4,56.9,48.2,42.3,99,80,40,30.16,30.00,13,1,13,0.00
2013-10-16,69.5,59.7,48.1,60.2,55.9,46.7,98,88,70,30.01,29.81,6,1,6,0.00
2013-10-17,74.5,65.6,60.3,64.2,61.8,59.2,98,88,66,29.81,29.58,9,1,9,0.02
2013-10-18,67.9,60.6,50.3,63.9,48.6,43.6,94,66,45,29.89,29.57,21,3,21,0.00
2013-10-19,65.2,53.1,40.8,55.0,46.6,39.4,97,80,53,29.90,29.65,9,1,9,0.00
2013-10-20,63.8,54.0,44.2,54.8,41.9,35.0,93,66,35,29.97,29.66,14,2,14,0.00
2013-10-21,68.2,53.7,39.8,46.0,40.7,36.7,91,65,36,30.07,29.89,11,2,11,0.00
2013-10-22,65.4,51.4,39.5,52.5,45.3,36.6,98,81,61,29.89,29.66,14,1,14,0.00
2013-10-23,57.1,46.1,36.7,42.3,38.2,33.9,94,75,52,29.73,29.52,17,2,17,0.00
2013-10-24,54.2,44.5,37.3,36.7,32.9,27.2,90,66,38,29.94,29.68,20,3,20,0.00
2013-10-25,54.2,43.7,35.7,35.7,32.0,29.0,84,65,40,30.15,29.94,24,3,24,0.00
2013-10-26,56.1,44.4,31.6,35.1,32.4,29.3,92,66,40,30.15,29.81,20,2,20,0.00
2013-10-27,58.6,49.5,42.3,37.0,34.3,31.8,70,57,40,30.03,29.77,19,2,19,0.00
2013-10-28,61.9,46.7,33.3,37.2,34.2,30.2,90,65,38,30.22,30.04,12,1,13,0.00
2013-10-29,58.4,46.6,38.1,39.0,35.7,32.4,90,67,44,30.33,30.21,9,1,9,0.00
2013-10-30,59.9,49.0,37.3,51.9,44.1,34.2,94,83,70,30.26,30.07,8,0,8,0.00
2013-10-31,67.8,59.0,48.3,63.2,55.9,47.2,97,90,77,30.12,29.70,9,1,14,0.09
2013-11-1,70.2,64.8,53.9,64.6,59.6,53.1,98,84,61,29.70,29.45,30,4,30,0.21
2013-11-2,69.0,56.8,49.1,54.7,48.2,41.0,99,76,48,29.69,29.52,11,1,11,0.00
2013-11-3,51.7,35.8,32.7,42.3,6.0,-99.9,84,50,38,30.37,29.68,17,-192,17,0.00
2013-11-4,47.2,32.4,29.4,26.5,4.7,-99.9,81,47,32,30.55,30.37,14,-137,14,0.00
2013-11-5,57.1,41.5,31.6,42.9,21.8,-99.9,91,65,58,30.55,30.38,11,-125,11,0.00
2013-11-6,65.4,51.2,36.7,52.1,45.5,35.9,98,82,55,30.39,29.96,8,1,10,0.00
2013-11-7,62.6,53.1,37.7,59.0,48.9,32.1,98,86,65,29.96,29.66,13,2,20,0.06
2013-11-8,49.9,42.7,37.3,36.5,30.5,26.8,82,63,42,30.14,29.85,19,3,19,0.00
2013-11-9,52.2,41.9,32.2,34.4,29.8,26.9,83,64,40,30.21,29.90,13,2,13,0.00
2013-11-10,60.3,47.9,38.2,39.8,34.2,28.3,86,61,40,29.98,29.74,29,5,29,0.00
2013-11-11,53.3,47.5,38.7,35.8,30.7,26.6,63,52,42,30.13,29.88,16,4,16,0.00
2013-11-12,50.4,37.7,28.3,37.9,25.5,17.6,88,62,49,30.21,29.85,22,4,22,0.01
2013-11-13,39.9,31.6,23.9,20.4,16.9,11.4,77,56,33,30.28,30.19,18,3,18,0.00
2013-11-14,53.2,39.2,29.3,22.5,20.1,15.9,69,50,24,30.19,30.06,19,4,19,0.00
2013-11-15,50.4,42.2,36.9,30.6,28.6,26.8,69,59,43,30.15,30.09,4,0,4,0.00
2013-11-16,62.1,49.3,42.1,47.4,41.7,30.4,98,77,52,30.25,30.14,9,1,9,0.03
2013-11-17,60.5,54.5,44.3,59.0,53.0,43.5,99,95,89,30.17,29.69,10,0,10,0.01
2013-11-18,65.3,59.9,50.2,63.0,42.5,27.4,97,57,31,29.69,29.50,23,5,23,0.12
2013-11-19,50.0,43.2,34.1,30.1,26.1,22.5,63,51,43,30.25,29.69,23,6,23,0.00
2013-11-20,46.3,34.7,26.5,22.8,17.8,7.2,78,53,22,30.51,30.25,12,1,12,0.00
2013-11-21,52.5,40.8,25.1,42.7,31.8,17.9,83,70,56,30.51,30.29,10,1,10,0.00
2013-11-22,57.7,51.6,47.0,51.2,47.5,41.8,97,86,77,30.29,29.81,15,2,15,0.06
2013-11-23,53.3,41.7,29.6,49.0,26.9,10.9,94,57,35,29.95,29.82,25,6,25,0.00
2013-11-24,29.6,25.0,21.7,12.6,4.9,2.4,50,42,32,30.30,29.94,30,7,30,0.00
2013-11-25,35.9,27.8,19.6,16.8,12.6,6.7,64,53,43,30.39,30.23,9,3,13,0.00
2013-11-26,51.9,35.8,31.6,51.9,27.8,17.3,100,74,53,30.24,29.64,18,1,18,0.68
2013-11-27,62.5,46.1,33.6,62.2,43.5,21.5,100,91,60,29.69,29.27,25,6,25,2.13
2013-11-28,35.6,31.1,26.2,23.6,15.7,11.2,73,53,37,30.39,29.69,29,5,29,0.00
2013-11-29,39.7,31.6,26.2,22.8,20.7,17.3,80,64,47,30.65,30.38,12,1,12,0.00
2013-11-30,36.3,30.7,22.6,30.5,22.0,13.2,80,70,55,30.66,30.28,10,1,10,0.00
2013-12-1,49.1,39.8,28.6,34.2,30.7,26.2,92,71,54,30.28,29.92,5,1,9,0.00
2013-12-2,51.4,41.0,32.6,35.9,32.0,29.8,92,71,49,29.92,29.77,5,0,5,0.00
2013-12-3,54.2,41.4,33.3,40.4,35.2,31.0,97,81,52,29.91,29.77,9,1,9,0.00
2013-12-4,50.4,42.5,32.8,45.6,39.0,31.1,96,87,75,30.03,29.91,5,0,5,0.00
2013-12-5,58.0,52.0,46.9,56.4,51.1,45.6,99,97,90,30.02,29.83,9,0,9,0.02
2013-12-6,58.6,43.4,37.4,56.6,42.8,37.1,99,98,93,30.06,29.80,10,2,19,0.95
2013-12-7,40.4,35.6,29.9,37.2,29.3,18.1,99,79,56,30.42,29.99,18,3,18,0.17
2013-12-8,32.4,28.9,25.5,29.4,21.4,16.3,97,74,59,30.49,30.26,8,1,8,0.00
2013-12-9,36.7,33.7,30.0,36.2,33.0,29.3,99,97,95,30.26,29.86,12,2,12,0.36
2013-12-10,33.3,30.8,24.8,32.8,28.8,19.4,98,92,76,30.05,29.77,13,2,13,0.00
2013-12-11,32.5,27.3,22.0,20.2,18.0,15.2,81,68,50,30.23,30.05,17,4,17,0.00
2013-12-12,27.9,23.8,18.8,17.4,10.8,6.0,73,58,42,30.26,30.07,14,3,14,0.00
2013-12-13,35.0,25.3,17.7,21.4,14.7,8.1,79,64,49,30.23,30.04,14,2,14,0.00
2013-12-14,30.2,25.2,20.3,29.3,21.5,18.5,97,86,69,30.38,29.66,15,3,15,0.00
2013-12-15,38.9,32.5,30.0,33.1,29.9,21.8,98,91,63,29.85,29.42,18,3,18,0.23
2013-12-16,29.7,24.6,17.5,13.9,11.6,9.9,79,58,44,30.25,30.02,13,3,17,0.00
2013-12-17,29.5,24.7,19.6,28.0,21.6,14.1,95,88,69,30.25,29.93,8,1,8,0.00
2013-12-18,37.1,27.6,19.7,25.2,21.1,17.3,91,77,56,30.20,29.94,17,2,17,0.00
2013-12-19,44.1,32.4,20.1,31.5,25.5,17.6,92,77,55,30.20,30.04,12,1,12,0.10
2013-12-20,51.8,40.8,29.8,38.5,33.3,28.3,96,76,54,30.12,29.97,11,1,11,0.00
2013-12-21,63.2,52.6,43.8,55.5,48.3,39.0,97,86,69,30.02,29.91,10,2,10,0.00
2013-12-22,70.0,65.1,59.1,64.5,60.3,55.5,93,85,76,29.96,29.81,25,4,25,0.01
2013-12-23,61.3,55.2,40.3,60.1,53.4,32.9,99,94,76,30.17,29.89,18,2,18,0.60
2013-12-24,40.7,34.5,25.2,32.1,23.0,9.7,86,63,48,30.37,30.10,26,4,26,0.00
2013-12-25,29.2,24.1,17.5,16.1,10.3,7.4,66,55,45,30.54,30.37,19,3,19,0.00
2013-12-26,35.4,29.6,22.9,28.3,23.2,15.7,84,77,66,30.44,30.18,13,2,13,0.00
2013-12-27,41.4,31.5,24.5,24.4,22.0,19.7,85,69,47,30.37,30.27,16,2,16,0.00
2013-12-28,56.4,40.4,24.8,31.3,27.4,21.5,88,63,37,30.31,30.09,23,3,23,0.00
2013-12-29,44.0,41.4,39.9,43.5,36.3,29.3,99,83,60,30.09,29.42,16,2,16,1.16
2013-12-30,45.1,35.1,21.8,38.2,28.0,11.4,95,76,58,30.21,29.72,19,4,19,0.00
2013-12-31,30.7,25.0,17.1,26.2,14.8,10.2,87,65,53,30.31,30.08,12,3,18,0.00
2014-1-1,32.9,27.9,20.4,23.5,17.2,10.6,81,64,56,30.42,30.24,9,1,9,0.00
2014-1-2,31.8,25.6,16.2,24.8,21.5,14.3,93,85,70,30.25,29.67,16,4,16,0.00